Time,TemperatureF,DewpointF,PressureIn,WindDirection,WindDirectionDegrees,WindSpeedMPH,WindSpeedGustMPH,Humidity,HourlyPrecipIn,Conditions,Clouds,dailyrainin,SoftwareType,DateUTC
2013-02-09 00:00:00,33.6,24.2,30.17,North,0,1.6,3.1,68,0.00,,,0.00,pywws,2013-02-09 05:00:00,
2013-02-09 00:01:00,33.6,24.2,30.17,SW,225,4.5,8.3,68,0.00,,,0.00,pywws,2013-02-09 05:01:00,
2013-02-09 00:02:00,33.6,24.2,30.17,NE,45,2.2,4.5,68,0.00,,,0.00,pywws,2013-02-09 05:02:00,
2013-02-09 00:08:00,33.4,24.4,30.17,North,0,1.6,3.1,69,0.00,,,0.00,pywws,2013-02-09 05:08:00,
2013-02-09 00:13:00,33.4,24.4,30.17,East,90,0.7,2.2,69,0.00,,,0.00,pywws,2013-02-09 05:13:00,
2013-02-09 00:19:00,33.4,24.4,30.17,South,180,1.6,5.4,69,0.00,,,0.00,pywws,2013-02-09 05:19:00,
2013-02-09 00:24:00,33.3,24.2,30.17,NW,315,2.2,3.8,69,0.00,,,0.00,pywws,2013-02-09 05:24:00,
2013-02-09 00:30:00,33.3,23.9,30.17,NNW,338,1.6,3.1,68,0.00,,,0.00,pywws,2013-02-09 05:30:00,
2013-02-09 00:36:00,33.3,23.9,30.17,NW,315,3.1,6.0,68,0.00,,,0.00,pywws,2013-02-09 05:36:00,
2013-02-09 00:40:00,33.3,23.9,30.17,NE,45,1.6,2.2,68,0.00,,,0.00,pywws,2013-02-09 05:40:00,
2013-02-09 00:45:00,33.1,23.7,30.17,NE,45,2.2,5.4,68,0.00,,,0.00,pywws,2013-02-09 05:45:00,
2013-02-09 00:51:00,33.1,24.0,30.17,East,90,1.6,3.1,69,0.00,,,0.00,pywws,2013-02-09 05:51:00,
2013-02-09 00:56:00,32.9,23.9,30.16,SW,225,3.1,6.0,69,0.00,,,0.00,pywws,2013-02-09 05:56:00,
2013-02-09 01:02:00,32.9,23.9,30.16,North,0,0.7,1.6,69,0.00,,,0.00,pywws,2013-02-09 06:02:00,
2013-02-09 01:08:00,32.7,23.7,30.16,NE,45,1.6,3.1,69,0.00,,,0.00,pywws,2013-02-09 06:08:00,
2013-02-09 01:13:00,32.5,23.5,30.16,West,270,2.2,4.5,69,0.00,,,0.00,pywws,2013-02-09 06:13:00,
2013-02-09 01:19:00,32.5,23.5,30.16,NE,45,1.6,2.2,69,0.00,,,0.00,pywws,2013-02-09 06:19:00,
2013-02-09 01:24:00,32.4,23.3,30.16,West,270,1.6,3.1,69,0.00,,,0.00,pywws,2013-02-09 06:24:00,
2013-02-09 01:30:00,32.4,23.3,30.17,South,180,1.6,4.5,69,0.00,,,0.00,pywws,2013-02-09 06:30:00,
2013-02-09 01:36:00,32.2,23.2,30.17,NE,45,1.6,3.8,69,0.00,,,0.00,pywws,2013-02-09 06:36:00,
2013-02-09 01:41:00,32.2,23.2,30.17,SW,225,2.2,4.5,69,0.00,,,0.00,pywws,2013-02-09 06:41:00,
2013-02-09 01:47:00,32.0,23.0,30.17,SE,135,2.2,3.8,69,0.00,,,0.00,pywws,2013-02-09 06:47:00,
2013-02-09 01:52:00,32.0,22.7,30.17,NE,45,1.6,2.2,68,0.00,,,0.00,pywws,2013-02-09 06:52:00,
2013-02-09 01:58:00,31.8,22.8,30.17,North,0,1.6,2.2,69,0.00,,,0.00,pywws,2013-02-09 06:58:00,
2013-02-09 02:04:00,31.8,23.2,30.18,NW,315,1.6,3.8,70,0.00,,,0.00,pywws,2013-02-09 07:04:00,
2013-02-09 02:09:00,31.6,23.0,30.18,NW,315,1.6,3.1,70,0.00,,,0.00,pywws,2013-02-09 07:09:00,
2013-02-09 02:15:00,31.6,23.0,30.18,NE,45,0.7,2.2,70,0.00,,,0.00,pywws,2013-02-09 07:15:00,
2013-02-09 02:20:00,31.5,22.8,30.18,East,90,0.7,2.2,70,0.00,,,0.00,pywws,2013-02-09 07:20:00,
2013-02-09 02:26:00,31.5,22.8,30.18,NW,315,1.6,3.1,70,0.00,,,0.00,pywws,2013-02-09 07:26:00,
2013-02-09 02:32:00,31.3,23.0,30.19,North,0,0.7,2.2,71,0.00,,,0.00,pywws,2013-02-09 07:32:00,
2013-02-09 02:37:00,31.3,23.0,30.19,NW,315,1.6,3.1,71,0.00,,,0.00,pywws,2013-02-09 07:37:00,
2013-02-09 02:43:00,31.3,23.0,30.19,West,270,0.0,1.6,71,0.00,,,0.00,pywws,2013-02-09 07:43:00,
2013-02-09 02:48:00,30.9,22.6,30.19,East,90,0.7,2.2,71,0.00,,,0.00,pywws,2013-02-09 07:48:00,
2013-02-09 02:54:00,30.9,23.0,30.19,West,270,0.7,1.6,72,0.00,,,0.00,pywws,2013-02-09 07:54:00,
2013-02-09 03:00:00,30.9,23.0,30.19,South,180,2.2,5.4,72,0.00,,,0.00,pywws,2013-02-09 08:00:00,
2013-02-09 03:06:00,30.9,23.0,30.19,South,180,2.2,5.4,72,0.00,,,0.00,pywws,2013-02-09 08:06:00,
2013-02-09 03:12:00,30.9,23.0,30.20,NE,45,0.0,0.7,72,0.00,,,0.00,pywws,2013-02-09 08:12:00,
2013-02-09 03:17:00,30.7,22.8,30.20,NW,315,0.7,1.6,72,0.00,,,0.00,pywws,2013-02-09 08:17:00,
2013-02-09 03:23:00,30.7,23.1,30.20,NE,45,1.6,3.1,73,0.00,,,0.00,pywws,2013-02-09 08:23:00,
2013-02-09 03:28:00,30.7,23.1,30.20,NNW,338,0.7,1.6,73,0.00,,,0.00,pywws,2013-02-09 08:28:00,
2013-02-09 03:34:00,30.7,23.1,30.20,NW,315,0.7,1.6,73,0.00,,,0.00,pywws,2013-02-09 08:34:00,
2013-02-09 03:40:00,30.7,23.1,30.21,NE,45,1.6,3.1,73,0.00,,,0.00,pywws,2013-02-09 08:40:00,
2013-02-09 03:46:00,30.9,23.3,30.20,NW,315,0.7,2.2,73,0.00,,,0.00,pywws,2013-02-09 08:46:00,
2013-02-09 03:52:00,30.6,22.6,30.20,North,0,1.6,2.2,72,0.00,,,0.00,pywws,2013-02-09 08:52:00,
2013-02-09 03:58:00,30.6,22.6,30.19,North,0,0.7,1.6,72,0.00,,,0.00,pywws,2013-02-09 08:58:00,
2013-02-09 04:04:00,30.6,22.6,30.20,NNE,22,0.7,2.2,72,0.00,,,0.00,pywws,2013-02-09 09:04:00,
2013-02-09 04:09:00,30.4,22.5,30.20,NE,45,1.6,3.1,72,0.00,,,0.00,pywws,2013-02-09 09:09:00,
2013-02-09 04:15:00,30.2,22.3,30.20,NW,315,0.7,2.2,72,0.00,,,0.00,pywws,2013-02-09 09:15:00,
2013-02-09 04:20:00,30.4,22.5,30.20,NE,45,1.6,4.5,72,0.00,,,0.00,pywws,2013-02-09 09:20:00,
2013-02-09 04:26:00,30.2,22.3,30.21,North,0,2.2,5.4,72,0.00,,,0.00,pywws,2013-02-09 09:26:00,
2013-02-09 04:32:00,30.2,22.3,30.20,NW,315,1.6,3.1,72,0.00,,,0.00,pywws,2013-02-09 09:32:00,
2013-02-09 04:37:00,30.2,22.3,30.21,East,90,2.2,4.5,72,0.00,,,0.00,pywws,2013-02-09 09:37:00,
2013-02-09 04:43:00,30.0,22.4,30.21,NE,45,2.2,3.8,73,0.00,,,0.00,pywws,2013-02-09 09:43:00,
2013-02-09 04:48:00,30.2,22.3,30.21,North,0,1.6,3.8,72,0.00,,,0.00,pywws,2013-02-09 09:48:00,
2013-02-09 04:54:00,30.2,22.3,30.21,East,90,0.7,1.6,72,0.00,,,0.00,pywws,2013-02-09 09:54:00,
2013-02-09 05:00:00,30.0,22.1,30.21,NW,315,0.7,1.6,72,0.00,,,0.00,pywws,2013-02-09 10:00:00,
2013-02-09 05:06:00,30.0,22.1,30.22,NW,315,0.7,1.6,72,0.00,,,0.00,pywws,2013-02-09 10:06:00,
2013-02-09 05:12:00,29.7,22.1,30.22,WSW,248,0.7,2.2,73,0.00,,,0.00,pywws,2013-02-09 10:12:00,
2013-02-09 05:17:00,29.7,22.4,30.22,NE,45,1.6,2.2,74,0.00,,,0.00,pywws,2013-02-09 10:17:00,
2013-02-09 05:23:00,29.7,22.4,30.22,NW,315,0.7,1.6,74,0.00,,,0.00,pywws,2013-02-09 10:23:00,
2013-02-09 05:28:00,29.5,22.2,30.22,North,0,0.7,1.6,74,0.00,,,0.00,pywws,2013-02-09 10:28:00,
2013-02-09 05:34:00,29.3,22.1,30.22,South,180,0.7,2.2,74,0.00,,,0.00,pywws,2013-02-09 10:34:00,
2013-02-09 05:40:00,29.3,22.1,30.23,North,0,0.7,2.2,74,0.00,,,0.00,pywws,2013-02-09 10:40:00,
2013-02-09 05:45:00,29.3,21.7,30.23,North,0,0.7,1.6,73,0.00,,,0.00,pywws,2013-02-09 10:45:00,
2013-02-09 05:51:00,29.3,21.7,30.23,NNW,338,1.6,3.1,73,0.00,,,0.00,pywws,2013-02-09 10:51:00,
2013-02-09 05:56:00,29.1,21.6,30.23,South,180,0.7,2.2,73,0.00,,,0.00,pywws,2013-02-09 10:56:00,
2013-02-09 06:02:00,29.1,21.6,30.23,NE,45,0.7,1.6,73,0.00,,,0.00,pywws,2013-02-09 11:02:00,
2013-02-09 06:08:00,28.9,21.4,30.24,East,90,0.7,1.6,73,0.00,,,0.00,pywws,2013-02-09 11:08:00,
2013-02-09 06:13:00,28.8,21.2,30.24,NE,45,1.6,3.8,73,0.00,,,0.00,pywws,2013-02-09 11:13:00,
2013-02-09 06:19:00,28.8,21.5,30.24,NE,45,0.7,1.6,74,0.00,,,0.00,pywws,2013-02-09 11:19:00,
2013-02-09 06:24:00,28.8,21.5,30.24,North,0,0.7,1.6,74,0.00,,,0.00,pywws,2013-02-09 11:24:00,
2013-02-09 06:30:00,28.8,21.5,30.24,NW,315,0.7,1.6,74,0.00,,,0.00,pywws,2013-02-09 11:30:00,
2013-02-09 06:36:00,28.8,21.5,30.25,West,270,0.7,2.2,74,0.00,,,0.00,pywws,2013-02-09 11:36:00,
2013-02-09 06:41:00,28.6,21.4,30.25,NW,315,1.6,3.1,74,0.00,,,0.00,pywws,2013-02-09 11:41:00,
2013-02-09 06:47:00,28.6,21.4,30.25,SE,135,0.7,2.2,74,0.00,,,0.00,pywws,2013-02-09 11:47:00,
2013-02-09 06:52:00,28.6,21.4,30.25,NW,315,0.7,2.2,74,0.00,,,0.00,pywws,2013-02-09 11:52:00,
2013-02-09 06:58:00,28.6,21.4,30.25,SW,225,0.7,3.1,74,0.00,,,0.00,pywws,2013-02-09 11:58:00,
2013-02-09 07:04:00,28.6,21.4,30.26,NE,45,1.6,3.1,74,0.00,,,0.00,pywws,2013-02-09 12:04:00,
2013-02-09 07:09:00,28.6,21.4,30.26,NW,315,0.0,0.7,74,0.00,,,0.00,pywws,2013-02-09 12:09:00,
2013-02-09 07:15:00,28.4,21.2,30.26,NE,45,1.6,3.8,74,0.00,,,0.00,pywws,2013-02-09 12:15:00,
2013-02-09 07:21:00,28.2,19.7,30.26,NE,45,0.7,1.6,70,0.00,,,0.00,pywws,2013-02-09 12:21:00,
2013-02-09 07:27:00,28.0,19.5,30.27,NW,315,0.7,1.6,70,0.00,,,0.00,pywws,2013-02-09 12:27:00,
2013-02-09 07:32:00,28.0,19.9,30.27,WSW,248,0.7,1.6,71,0.00,,,0.00,pywws,2013-02-09 12:32:00,
2013-02-09 07:38:00,27.9,19.7,30.27,NW,315,0.7,1.6,71,0.00,,,0.00,pywws,2013-02-09 12:38:00,
2013-02-09 07:44:00,28.4,21.5,30.27,North,0,0.0,0.7,75,0.00,,,0.00,pywws,2013-02-09 12:44:00,
2013-02-09 07:49:00,29.5,22.6,30.27,NE,45,0.0,0.0,75,0.00,,,0.00,pywws,2013-02-09 12:49:00,
2013-02-09 07:55:00,30.6,22.6,30.27,NE,45,0.7,2.2,72,0.00,,,0.00,pywws,2013-02-09 12:55:00,
2013-02-09 08:00:00,31.8,23.2,30.28,North,0,0.0,1.6,70,0.00,,,0.00,pywws,2013-02-09 13:00:00,
2013-02-09 08:06:00,32.7,23.0,30.28,South,180,0.0,1.6,67,0.00,,,0.00,pywws,2013-02-09 13:06:00,
2013-02-09 08:12:00,33.8,22.9,30.29,NE,45,1.6,3.1,64,0.00,,,0.00,pywws,2013-02-09 13:12:00,
2013-02-09 08:17:00,34.3,23.1,30.29,North,0,0.0,0.7,63,0.00,,,0.00,pywws,2013-02-09 13:17:00,
2013-02-09 08:23:00,35.6,23.5,30.29,North,0,0.0,0.7,61,0.00,,,0.00,pywws,2013-02-09 13:23:00,
2013-02-09 08:28:00,36.9,23.9,30.28,West,270,0.0,1.6,59,0.00,,,0.00,pywws,2013-02-09 13:28:00,
2013-02-09 08:34:00,37.4,25.2,30.29,South,180,0.7,1.6,61,0.00,,,0.00,pywws,2013-02-09 13:34:00,
2013-02-09 08:40:00,38.1,25.5,30.29,West,270,2.2,3.8,60,0.00,,,0.00,pywws,2013-02-09 13:40:00,
2013-02-09 08:45:00,37.9,24.9,30.30,East,90,0.7,1.6,59,0.00,,,0.00,pywws,2013-02-09 13:45:00,
2013-02-09 08:51:00,38.5,25.4,30.30,SW,225,0.7,2.2,59,0.00,,,0.00,pywws,2013-02-09 13:51:00,
2013-02-09 08:56:00,37.9,24.5,30.30,NE,45,0.0,1.6,58,0.00,,,0.00,pywws,2013-02-09 13:56:00,
2013-02-09 09:05:00,38.1,25.1,30.29,West,270,2.2,3.8,59,0.00,,,0.00,pywws,2013-02-09 14:05:00,
2013-02-09 09:11:00,36.9,21.8,30.29,South,180,0.7,2.2,54,0.00,,,0.00,pywws,2013-02-09 14:11:00,
2013-02-09 09:16:00,36.7,21.6,30.29,NW,315,0.7,1.6,54,0.00,,,0.00,pywws,2013-02-09 14:16:00,
2013-02-09 09:22:00,37.0,21.5,30.30,SW,225,2.2,6.0,53,0.00,,,0.00,pywws,2013-02-09 14:22:00,
2013-02-09 09:28:00,37.0,21.5,30.30,NE,45,1.6,3.1,53,0.00,,,0.00,pywws,2013-02-09 14:28:00,
2013-02-09 09:33:00,37.8,23.9,30.30,NW,315,0.0,1.6,57,0.00,,,0.00,pywws,2013-02-09 14:33:00,
2013-02-09 09:39:00,38.7,24.8,30.30,West,270,2.2,3.8,57,0.00,,,0.00,pywws,2013-02-09 14:39:00,
2013-02-09 09:44:00,39.0,25.1,30.30,SE,135,1.6,3.1,57,0.00,,,0.00,pywws,2013-02-09 14:44:00,
2013-02-09 09:50:00,40.1,25.2,30.30,NE,45,0.7,1.6,55,0.00,,,0.00,pywws,2013-02-09 14:50:00,
2013-02-09 09:56:00,40.6,24.9,30.30,NE,45,0.7,2.2,53,0.00,,,0.00,pywws,2013-02-09 14:56:00,
2013-02-09 10:01:00,41.5,25.7,30.30,South,180,3.1,5.4,53,0.00,,,0.00,pywws,2013-02-09 15:01:00,
2013-02-09 10:07:00,41.0,23.8,30.30,SW,225,0.7,1.6,50,0.00,,,0.00,pywws,2013-02-09 15:07:00,
2013-02-09 10:12:00,41.5,24.8,30.30,NE,45,2.2,3.1,51,0.00,,,0.00,pywws,2013-02-09 15:12:00,
2013-02-09 10:18:00,42.4,25.1,30.30,SW,225,1.6,3.1,50,0.00,,,0.00,pywws,2013-02-09 15:18:00,
2013-02-09 10:24:00,43.2,24.8,30.30,East,90,2.2,5.4,48,0.00,,,0.00,pywws,2013-02-09 15:24:00,
2013-02-09 10:29:00,43.2,23.3,30.30,North,0,0.7,1.6,45,0.00,,,0.00,pywws,2013-02-09 15:29:00,
2013-02-09 10:35:00,43.5,22.5,30.31,North,0,1.6,2.2,43,0.00,,,0.00,pywws,2013-02-09 15:35:00,
2013-02-09 10:40:00,44.2,23.2,30.31,West,270,1.6,3.1,43,0.00,,,0.00,pywws,2013-02-09 15:40:00,
2013-02-09 10:46:00,45.0,19.6,30.30,NW,315,2.2,4.5,36,0.00,,,0.00,pywws,2013-02-09 15:46:00,
2013-02-09 10:52:00,46.0,23.7,30.30,South,180,4.5,6.9,41,0.00,,,0.00,pywws,2013-02-09 15:52:00,
2013-02-09 10:57:00,46.8,20.6,30.31,West,270,0.7,1.6,35,0.00,,,0.00,pywws,2013-02-09 15:57:00,
2013-02-09 11:04:00,47.1,20.2,30.31,West,270,1.6,3.1,34,0.00,,,0.00,pywws,2013-02-09 16:04:00,
2013-02-09 11:09:00,48.6,17.0,30.31,North,0,0.7,2.2,28,0.00,,,0.00,pywws,2013-02-09 16:09:00,
2013-02-09 11:15:00,49.1,18.2,30.31,NW,315,1.6,3.1,29,0.00,,,0.00,pywws,2013-02-09 16:15:00,
2013-02-09 11:20:00,49.8,16.3,30.31,SW,225,2.2,4.5,26,0.00,,,0.00,pywws,2013-02-09 16:20:00,
2013-02-09 11:26:00,50.0,14.7,30.31,North,0,0.7,2.2,24,0.00,,,0.00,pywws,2013-02-09 16:26:00,
2013-02-09 11:32:00,50.2,13.8,30.31,NE,45,0.7,3.8,23,0.00,,,0.00,pywws,2013-02-09 16:32:00,
2013-02-09 11:37:00,51.6,17.9,30.31,North,0,0.7,1.6,26,0.00,,,0.00,pywws,2013-02-09 16:37:00,
2013-02-09 11:43:00,52.2,15.5,30.31,NE,45,0.7,2.2,23,0.00,,,0.00,pywws,2013-02-09 16:43:00,
2013-02-09 11:48:00,52.7,16.0,30.31,South,180,3.1,5.4,23,0.00,,,0.00,pywws,2013-02-09 16:48:00,
2013-02-09 11:54:00,52.3,14.6,30.30,ESE,112,0.7,1.6,22,0.00,,,0.00,pywws,2013-02-09 16:54:00,
2013-02-09 12:01:00,51.8,14.2,30.31,East,90,1.6,3.1,22,0.00,,,0.00,pywws,2013-02-09 17:01:00,
2013-02-09 12:07:00,52.0,14.3,30.30,SW,225,0.7,3.1,22,0.00,,,0.00,pywws,2013-02-09 17:07:00,
2013-02-09 12:12:00,52.7,14.9,30.30,WSW,248,3.1,6.0,22,0.00,,,0.00,pywws,2013-02-09 17:12:00,
2013-02-09 12:18:00,52.7,14.9,30.30,West,270,3.1,6.0,22,0.00,,,0.00,pywws,2013-02-09 17:18:00,
2013-02-09 12:24:00,52.0,15.4,30.30,NW,315,2.2,3.8,23,0.00,,,0.00,pywws,2013-02-09 17:24:00,
2013-02-09 12:29:00,53.6,16.7,30.30,South,180,2.2,3.8,23,0.00,,,0.00,pywws,2013-02-09 17:29:00,
2013-02-09 12:35:00,54.1,16.1,30.29,SW,225,3.8,6.0,22,0.00,,,0.00,pywws,2013-02-09 17:35:00,
2013-02-09 12:40:00,53.4,15.5,30.29,NW,315,3.1,6.0,22,0.00,,,0.00,pywws,2013-02-09 17:40:00,
2013-02-09 12:46:00,54.1,15.1,30.29,West,270,3.8,7.6,21,0.00,,,0.00,pywws,2013-02-09 17:46:00,
2013-02-09 12:52:00,54.0,14.9,30.29,NE,45,1.6,3.1,21,0.00,,,0.00,pywws,2013-02-09 17:52:00,
2013-02-09 12:57:00,55.0,15.8,30.28,SW,225,0.7,3.1,21,0.00,,,0.00,pywws,2013-02-09 17:57:00,
2013-02-09 13:03:00,56.3,19.0,30.28,East,90,1.6,2.2,23,0.00,,,0.00,pywws,2013-02-09 18:03:00,
2013-02-09 13:08:00,55.4,17.2,30.28,NE,45,0.0,0.7,22,0.00,,,0.00,pywws,2013-02-09 18:08:00,
2013-02-09 13:14:00,55.6,17.4,30.28,West,270,3.1,3.8,22,0.00,,,0.00,pywws,2013-02-09 18:14:00,
2013-02-09 13:20:00,57.0,20.6,30.28,NW,315,0.7,2.2,24,0.00,,,0.00,pywws,2013-02-09 18:20:00,
2013-02-09 13:26:00,58.1,20.5,30.27,SW,225,0.7,2.2,23,0.00,,,0.00,pywws,2013-02-09 18:26:00,
2013-02-09 13:32:00,59.0,19.1,30.27,NE,45,3.1,4.5,21,0.00,,,0.00,pywws,2013-02-09 18:32:00,
2013-02-09 13:37:00,57.9,19.3,30.27,South,180,0.7,1.6,22,0.00,,,0.00,pywws,2013-02-09 18:37:00,
2013-02-09 13:43:00,59.5,19.6,30.27,SW,225,1.6,2.2,21,0.00,,,0.00,pywws,2013-02-09 18:43:00,
2013-02-09 13:48:00,60.1,18.9,30.27,NE,45,0.7,2.2,20,0.00,,,0.00,pywws,2013-02-09 18:48:00,
2013-02-09 13:54:00,61.2,19.8,30.27,NE,45,2.2,4.5,20,0.00,,,0.00,pywws,2013-02-09 18:54:00,
2013-02-09 14:00:00,59.7,18.6,30.27,SW,225,1.6,2.2,20,0.00,,,0.00,pywws,2013-02-09 19:00:00,
2013-02-09 14:05:00,60.1,18.9,30.26,NE,45,2.2,3.8,20,0.00,,,0.00,pywws,2013-02-09 19:05:00,
2013-02-09 14:11:00,58.8,19.0,30.26,North,0,2.2,3.1,21,0.00,,,0.00,pywws,2013-02-09 19:11:00,
2013-02-09 14:16:00,59.5,19.6,30.26,SE,135,0.7,1.6,21,0.00,,,0.00,pywws,2013-02-09 19:16:00,
2013-02-09 14:22:00,61.5,18.9,30.25,NE,45,2.2,3.8,19,0.00,,,0.00,pywws,2013-02-09 19:22:00,
2013-02-09 14:28:00,62.1,19.3,30.25,West,270,0.7,1.6,19,0.00,,,0.00,pywws,2013-02-09 19:28:00,
2013-02-09 14:33:00,61.7,19.0,30.25,NE,45,3.1,4.5,19,0.00,,,0.00,pywws,2013-02-09 19:33:00,
2013-02-09 14:39:00,62.2,19.5,30.25,NW,315,1.6,3.1,19,0.00,,,0.00,pywws,2013-02-09 19:39:00,
2013-02-09 14:44:00,63.5,19.2,30.25,NW,315,0.7,1.6,18,0.00,,,0.00,pywws,2013-02-09 19:44:00,
2013-02-09 14:50:00,63.9,19.5,30.25,NW,315,1.6,3.1,18,0.00,,,0.00,pywws,2013-02-09 19:50:00,
2013-02-09 14:56:00,62.8,18.7,30.24,NE,45,3.8,4.5,18,0.00,,,0.00,pywws,2013-02-09 19:56:00,
2013-02-09 15:01:00,61.3,18.7,30.25,East,90,0.7,1.6,19,0.00,,,0.00,pywws,2013-02-09 20:01:00,
2013-02-09 15:07:00,63.5,19.2,30.24,NE,45,1.6,2.2,18,0.00,,,0.00,pywws,2013-02-09 20:07:00,
2013-02-09 15:12:00,62.6,18.5,30.24,NE,45,3.8,5.4,18,0.00,,,0.00,pywws,2013-02-09 20:12:00,
2013-02-09 15:18:00,61.5,18.9,30.24,SW,225,2.2,3.1,19,0.00,,,0.00,pywws,2013-02-09 20:18:00,
2013-02-09 15:24:00,63.9,19.5,30.24,SW,225,1.6,2.2,18,0.00,,,0.00,pywws,2013-02-09 20:24:00,
2013-02-09 15:29:00,65.3,19.4,30.24,NE,45,1.6,3.8,17,0.00,,,0.00,pywws,2013-02-09 20:29:00,
2013-02-09 15:35:00,64.2,19.8,30.24,NE,45,0.7,2.2,18,0.00,,,0.00,pywws,2013-02-09 20:35:00,
2013-02-09 15:41:00,63.9,19.5,30.24,NW,315,0.0,0.7,18,0.00,,,0.00,pywws,2013-02-09 20:41:00,
2013-02-09 15:47:00,65.8,19.8,30.24,NE,45,0.7,1.6,17,0.00,,,0.00,pywws,2013-02-09 20:47:00,
2013-02-09 15:52:00,64.2,19.8,30.24,SE,135,1.6,2.2,18,0.00,,,0.00,pywws,2013-02-09 20:52:00,
2013-02-09 15:58:00,63.0,18.8,30.24,ENE,68,1.6,2.2,18,0.00,,,0.00,pywws,2013-02-09 20:58:00,
2013-02-09 16:04:00,62.2,19.5,30.24,NE,45,1.6,2.2,19,0.00,,,0.00,pywws,2013-02-09 21:04:00,
2013-02-09 16:09:00,62.4,19.6,30.24,NE,45,0.0,1.6,19,0.00,,,0.00,pywws,2013-02-09 21:09:00,
2013-02-09 16:15:00,65.5,19.5,30.24,NE,45,3.8,6.0,17,0.00,,,0.00,pywws,2013-02-09 21:15:00,
2013-02-09 16:20:00,61.3,18.7,30.24,NE,45,1.6,3.1,19,0.00,,,0.00,pywws,2013-02-09 21:20:00,
2013-02-09 16:26:00,62.1,19.3,30.24,NE,45,2.2,3.8,19,0.00,,,0.00,pywws,2013-02-09 21:26:00,
2013-02-09 16:32:00,61.2,18.6,30.24,NE,45,0.7,1.6,19,0.00,,,0.00,pywws,2013-02-09 21:32:00,
2013-02-09 16:37:00,63.5,19.2,30.24,NE,45,1.6,2.2,18,0.00,,,0.00,pywws,2013-02-09 21:37:00,
2013-02-09 16:43:00,62.4,19.6,30.24,East,90,2.2,3.8,19,0.00,,,0.00,pywws,2013-02-09 21:43:00,
2013-02-09 16:48:00,63.0,18.8,30.24,NE,45,2.2,3.1,18,0.00,,,0.00,pywws,2013-02-09 21:48:00,
2013-02-09 16:54:00,64.0,19.7,30.24,NE,45,1.6,2.2,18,0.00,,,0.00,pywws,2013-02-09 21:54:00,
2013-02-09 17:02:00,63.3,19.1,30.24,NE,45,1.6,2.2,18,0.00,,,0.00,pywws,2013-02-09 22:02:00,
2013-02-09 17:08:00,65.5,19.5,30.24,East,90,0.0,0.7,17,0.00,,,0.00,pywws,2013-02-09 22:08:00,
2013-02-09 17:13:00,68.5,19.1,30.24,NE,45,0.0,0.7,15,0.00,,,0.00,pywws,2013-02-09 22:13:00,
2013-02-09 17:19:00,68.0,18.6,30.24,East,90,0.0,0.0,15,0.00,,,0.00,pywws,2013-02-09 22:19:00,
2013-02-09 17:24:00,65.5,19.5,30.24,East,90,0.0,0.0,17,0.00,,,0.00,pywws,2013-02-09 22:24:00,
2013-02-09 17:30:00,60.6,19.3,30.24,SW,225,0.7,1.6,20,0.00,,,0.00,pywws,2013-02-09 22:30:00,
2013-02-09 17:37:00,54.1,14.0,30.24,West,270,0.7,1.6,20,0.00,,,0.00,pywws,2013-02-09 22:37:00,
2013-02-09 17:43:00,52.3,13.6,30.24,West,270,0.7,1.6,21,0.00,,,0.00,pywws,2013-02-09 22:43:00,
2013-02-09 17:48:00,51.3,13.7,30.24,SW,225,0.7,1.6,22,0.00,,,0.00,pywws,2013-02-09 22:48:00,
2013-02-09 17:54:00,50.4,14.0,30.24,SW,225,0.7,1.6,23,0.00,,,0.00,pywws,2013-02-09 22:54:00,
2013-02-09 18:00:00,50.2,14.8,30.24,South,180,0.7,0.7,24,0.00,,,0.00,pywws,2013-02-09 23:00:00,
2013-02-09 18:06:00,49.1,14.8,30.25,SW,225,0.7,1.6,25,0.00,,,0.00,pywws,2013-02-09 23:06:00,
2013-02-09 18:12:00,48.2,13.1,30.24,SW,225,0.0,0.7,24,0.00,,,0.00,pywws,2013-02-09 23:12:00,
2013-02-09 18:17:00,47.1,14.0,30.25,SE,135,0.0,0.0,26,0.00,,,0.00,pywws,2013-02-09 23:17:00,
2013-02-09 18:24:00,46.4,16.7,30.25,South,180,0.7,1.6,30,0.00,,,0.00,pywws,2013-02-09 23:24:00,
2013-02-09 18:29:00,45.5,15.1,30.25,SW,225,1.6,2.2,29,0.00,,,0.00,pywws,2013-02-09 23:29:00,
2013-02-09 18:35:00,44.6,14.3,30.25,SW,225,0.7,1.6,29,0.00,,,0.00,pywws,2013-02-09 23:35:00,
2013-02-09 18:40:00,44.2,18.3,30.25,SW,225,0.7,0.7,35,0.00,,,0.00,pywws,2013-02-09 23:40:00,
2013-02-09 18:46:00,43.7,19.8,30.25,SW,225,0.7,1.6,38,0.00,,,0.00,pywws,2013-02-09 23:46:00,
2013-02-09 18:52:00,43.0,19.7,30.25,SW,225,0.7,1.6,39,0.00,,,0.00,pywws,2013-02-09 23:52:00,
2013-02-09 18:57:00,42.1,20.1,30.25,SW,225,0.7,1.6,41,0.00,,,0.00,pywws,2013-02-09 23:57:00,
2013-02-09 19:04:00,41.7,20.9,30.26,SW,225,2.2,3.1,43,0.00,,,0.00,pywws,2013-02-10 00:04:00,
2013-02-09 19:10:00,41.2,18.1,30.26,SW,225,0.0,0.0,39,0.00,,,0.00,pywws,2013-02-10 00:10:00,
2013-02-09 19:16:00,40.6,18.8,30.26,SW,225,0.0,0.0,41,0.00,,,0.00,pywws,2013-02-10 00:16:00,
2013-02-09 19:22:00,41.0,19.7,30.27,SW,225,0.0,0.0,42,0.00,,,0.00,pywws,2013-02-10 00:22:00,
2013-02-09 19:28:00,40.3,19.6,30.27,SW,225,0.0,0.0,43,0.00,,,0.00,pywws,2013-02-10 00:28:00,
2013-02-09 19:33:00,39.4,19.3,30.27,SW,225,0.0,0.7,44,0.00,,,0.00,pywws,2013-02-10 00:33:00,
2013-02-09 19:39:00,39.4,19.3,30.27,SW,225,0.0,0.0,44,0.00,,,0.00,pywws,2013-02-10 00:39:00,
2013-02-09 19:44:00,38.8,19.8,30.27,SW,225,0.7,1.6,46,0.00,,,0.00,pywws,2013-02-10 00:44:00,
2013-02-09 19:50:00,38.8,19.8,30.27,SW,225,1.6,3.1,46,0.00,,,0.00,pywws,2013-02-10 00:50:00,
2013-02-09 19:56:00,38.8,19.3,30.27,SW,225,1.6,2.2,45,0.00,,,0.00,pywws,2013-02-10 00:56:00,
2013-02-09 20:01:00,39.2,16.3,30.27,SW,225,2.2,3.1,39,0.00,,,0.00,pywws,2013-02-10 01:01:00,
2013-02-09 20:07:00,39.9,17.0,30.27,SW,225,0.7,2.2,39,0.00,,,0.00,pywws,2013-02-10 01:07:00,
2013-02-09 20:12:00,40.8,15.3,30.27,South,180,0.7,2.2,35,0.00,,,0.00,pywws,2013-02-10 01:12:00,
2013-02-09 20:18:00,41.7,14.1,30.27,South,180,1.6,2.2,32,0.00,,,0.00,pywws,2013-02-10 01:18:00,
2013-02-09 20:24:00,42.6,13.4,30.28,West,270,0.7,2.2,30,0.00,,,0.00,pywws,2013-02-10 01:24:00,
2013-02-09 20:29:00,43.0,12.1,30.28,West,270,1.6,2.2,28,0.00,,,0.00,pywws,2013-02-10 01:29:00,
2013-02-09 20:36:00,43.2,12.3,30.28,South,180,3.1,3.8,28,0.00,,,0.00,pywws,2013-02-10 01:36:00,
2013-02-09 20:41:00,43.0,12.9,30.28,East,90,0.0,1.6,29,0.00,,,0.00,pywws,2013-02-10 01:41:00,
2013-02-09 20:47:00,41.4,17.7,30.28,NE,45,0.7,1.6,38,0.00,,,0.00,pywws,2013-02-10 01:47:00,
2013-02-09 20:52:00,39.4,18.2,30.29,NE,45,0.0,1.6,42,0.00,,,0.00,pywws,2013-02-10 01:52:00,
2013-02-09 20:58:00,38.3,18.8,30.28,NE,45,0.7,1.6,45,0.00,,,0.00,pywws,2013-02-10 01:58:00,
2013-02-09 21:04:00,38.3,18.8,30.28,North,0,0.7,1.6,45,0.00,,,0.00,pywws,2013-02-10 02:04:00,
2013-02-09 21:09:00,37.8,19.4,30.29,West,270,0.0,0.7,47,0.00,,,0.00,pywws,2013-02-10 02:09:00,
2013-02-09 21:15:00,37.8,19.4,30.29,NE,45,0.7,1.6,47,0.00,,,0.00,pywws,2013-02-10 02:15:00,
2013-02-09 21:20:00,37.4,20.5,30.29,NE,45,0.7,2.2,50,0.00,,,0.00,pywws,2013-02-10 02:20:00,
2013-02-09 21:26:00,37.2,17.3,30.29,SE,135,0.7,1.6,44,0.00,,,0.00,pywws,2013-02-10 02:26:00,
2013-02-09 21:32:00,37.8,19.9,30.29,East,90,1.6,3.1,48,0.00,,,0.00,pywws,2013-02-10 02:32:00,
2013-02-09 21:37:00,38.5,21.0,30.28,South,180,0.7,2.2,49,0.00,,,0.00,pywws,2013-02-10 02:37:00,
2013-02-09 21:43:00,38.8,21.3,30.28,SW,225,1.6,3.1,49,0.00,,,0.00,pywws,2013-02-10 02:43:00,
2013-02-09 21:48:00,39.7,21.7,30.29,North,0,2.2,3.1,48,0.00,,,0.00,pywws,2013-02-10 02:48:00,
2013-02-09 21:54:00,40.6,22.0,30.29,SE,135,2.2,5.4,47,0.00,,,0.00,pywws,2013-02-10 02:54:00,
2013-02-09 22:00:00,41.0,21.8,30.29,South,180,3.8,6.9,46,0.00,,,0.00,pywws,2013-02-10 03:00:00,
2013-02-09 22:05:00,41.5,22.3,30.29,SW,225,2.2,3.8,46,0.00,,,0.00,pywws,2013-02-10 03:05:00,
2013-02-09 22:11:00,41.7,22.5,30.29,West,270,4.5,6.9,46,0.00,,,0.00,pywws,2013-02-10 03:11:00,
2013-02-09 22:16:00,41.9,22.6,30.29,WSW,248,3.1,5.4,46,0.00,,,0.00,pywws,2013-02-10 03:16:00,
2013-02-09 22:22:00,41.9,22.6,30.29,SW,225,1.6,4.5,46,0.00,,,0.00,pywws,2013-02-10 03:22:00,
2013-02-09 22:28:00,41.5,22.3,30.29,SW,225,1.6,2.2,46,0.00,,,0.00,pywws,2013-02-10 03:28:00,
2013-02-09 22:33:00,41.4,22.2,30.29,East,90,2.2,6.0,46,0.00,,,0.00,pywws,2013-02-10 03:33:00,
2013-02-09 22:39:00,41.0,22.3,30.29,SE,135,3.8,6.0,47,0.00,,,0.00,pywws,2013-02-10 03:39:00,
2013-02-09 22:44:00,40.8,22.7,30.29,South,180,2.2,3.8,48,0.00,,,0.00,pywws,2013-02-10 03:44:00,
2013-02-09 22:50:00,40.5,22.3,30.29,SE,135,3.1,3.8,48,0.00,,,0.00,pywws,2013-02-10 03:50:00,
2013-02-09 22:56:00,40.3,22.7,30.29,SW,225,2.2,3.8,49,0.00,,,0.00,pywws,2013-02-10 03:56:00,
2013-02-09 23:01:00,40.1,22.5,30.29,NW,315,1.6,2.2,49,0.00,,,0.00,pywws,2013-02-10 04:01:00,
2013-02-09 23:07:00,39.9,22.3,30.29,SW,225,0.7,1.6,49,0.00,,,0.00,pywws,2013-02-10 04:07:00,
2013-02-09 23:12:00,39.6,22.5,30.29,West,270,0.7,2.2,50,0.00,,,0.00,pywws,2013-02-10 04:12:00,
2013-02-09 23:18:00,39.2,22.6,30.29,SE,135,1.6,3.8,51,0.00,,,0.00,pywws,2013-02-10 04:18:00,
2013-02-09 23:24:00,39.0,23.4,30.29,South,180,1.6,3.1,53,0.00,,,0.00,pywws,2013-02-10 04:24:00,
2013-02-09 23:29:00,38.7,23.0,30.29,SW,225,0.7,1.6,53,0.00,,,0.00,pywws,2013-02-10 04:29:00,
2013-02-09 23:35:00,38.7,23.0,30.29,SW,225,2.2,4.5,53,0.00,,,0.00,pywws,2013-02-10 04:35:00,
2013-02-09 23:40:00,38.8,23.2,30.29,South,180,2.2,3.8,53,0.00,,,0.00,pywws,2013-02-10 04:40:00,
2013-02-09 23:46:00,39.2,22.6,30.29,SW,225,0.7,2.2,51,0.00,,,0.00,pywws,2013-02-10 04:46:00,
2013-02-09 23:55:00,39.7,22.2,30.29,South,180,2.2,3.8,49,0.00,,,0.00,pywws,2013-02-10 04:55:00,